Regional Weather Roundup
Issued by NWS

Home | Current Version | Previous Version | Text Only | Print | Product List | Glossary Off
Versions: 1 2 3 4 5 6 7 8 9 10 11 12 13 14 15 16 17 18 19 20 21 22 23 24 25 26 27 28

000
ASUS45 KSLC 291310
RWRUT

UTAH REGIONAL WEATHER ROUNDUP
NATIONAL WEATHER SERVICE SALT LAKE CITY UT
700 AM MDT FRI APR 29 2016

UTZ001>011-023>025-291400-

NORTHERN UTAH

CITY           SKY/WX    TMP DP  RH WIND       PRES   REMARKS
BRIGHAM CITY   CLOUDY    47  26  44 SE15      29.87R
HILL AFB       CLOUDY    41  31  66 E17G26    29.86R
LOGAN          CLOUDY    44  29  55 SE15G23   29.88S
OGDEN          CLOUDY    44  30  57 SW6       29.86R
PROVO AIRPORT  MOCLDY    39  36  87 CALM      29.87S
SALT LAKE CITY MOCLDY    45  33  63 E7        29.86S
VERNAL         CLOUDY    39  31  72 E13       29.85R WCI  31
WENDOVER       MOCLDY    46  28  49 NW9       29.89R
HEBER CITY     LGT SNOW  34  32  93 CALM      29.89R

$$

UTZ012>022-026-027-291400-

SOUTHERN/CENTRAL UTAH

CITY           SKY/WX    TMP DP  RH WIND       PRES   REMARKS
BLANDING       CLOUDY    37  32  82 N5        29.92R WCI  33
BRYCE CANYON   CLOUDY    34  30  85 NW10      29.88R WCI  26
CEDAR CITY     CLOUDY    41  38  89 CALM      29.88S
DELTA          MOCLDY    39  39 100 S3        29.88R
MILFORD        CLOUDY    42  40  92 S3        29.88S
MOAB/CYNLANDS  MOCLDY    38  36  92 CALM      29.82S
PRICE          CLOUDY    39  33  79 CALM      29.84S
ST GEORGE      CLOUDY    46  39  76 CALM      29.89R

$$

REGIONAL REPORTS     COLORADO/ARIZONA

CITY           SKY/WX    TMP DP  RH WIND       PRES   REMARKS
CRAIG, CO      CLOUDY    36  32  85 N6        29.85S WCI  31
GRAND JUNCTION CLOUDY    38  37  97 CALM      29.83R
RIFLE          CLOUDY    40  37  89 CALM      29.82R
MONTROSE       CLOUDY    39  34  82 CALM      29.84R
CORTEZ         CLOUDY    33  30  88 E7        29.85R WCI  27
PAGE, AZ       CLOUDY    47  45  93 N3        29.85R
GRAND CANYON   CLOUDY    38  36  92 CALM      29.91R
KINGMAN        CLEAR     43  40  89 SE8       29.90S
FLAGSTAFF      CLOUDY    35  34  96 W7        29.91R WCI  29

$$

REGIONAL REPORTS    NEVADA/IDAHO/WYOMING

CITY           SKY/WX    TMP DP  RH WIND       PRES   REMARKS
LAS VEGAS, NV  PTCLDY    54  44  69 CALM      29.82S
ELY            MOCLDY    32  30  92 S6        29.93S WCI  26
ELKO           CLOUDY    41  36  82 S5        29.94S
POCATELLO, ID  CLOUDY    40  35  83 S6        29.88R
BURLEY         CLOUDY    43  38  82 W9        29.87S
EVANSTON, WY   CLOUDY    31  27  85 NE9       29.90S WCI  23
ROCK SPRINGS   CLOUDY    30  26  85 NE12      29.91S WCI  20

$$




USA.gov is the U.S. government's official web portal to all federal, state and local government web resources and services.